Location: Karlsruhe
(49.0131°N, 8.3874°E)
Time: 15:58:06
(UTC+02:00)

ISS - Pass Details

Date: 19 May 2021
Orbit: 419 x 422 km, 51.6° (Epoch: 25 June)

Event Time Altitude Azimuth Distance (km) Brightness Sun altitude
Rises 01:57:50 0° 290° (WNW) 2,376 0.2 -20.8°
Reaches altitude 10° 01:59:56 10° 289° (WNW) 1,509 -0.8 -20.7°
Enters shadow 02:01:35 26° 285° (WNW) 863 -2.2 -20.7°
